Location: D�rnast
(49.6426°N, 11.9755°E)
Time: 14:08:46
(UTC+00:00)

ISS - Pass Details

Date: 08 December 2021
Orbit: 413 x 422 km, 51.6° (Epoch: 27 January)

Event Time Altitude Azimuth Distance (km) Brightness Sun altitude
Rises 16:50:10 0° 283° (WNW) 2,387 1.1 -15.0°
Reaches altitude 10° 16:52:51 10° 261° (W) 1,515 0.4 -15.4°
Maximum altitude 16:55:00 16° 222° (SW) 1,198 -0.6 -15.7°
Drops below altitude 10° 16:57:09 10° 182° (S) 1,504 -0.7 -16.1°
Enters shadow 17:01:42 -6° 152° (SSE) 3,073 0.5 -16.8°
